CZ-6A DEB

Satellite information

Favourite Embed

Satellite Type and Status

DEBRISIN ORBIT

Key statistics

Satellite CZ-6A DEB at a glance.

Uptime

911

Days in orbit

Revolutions

≈ 14.1

Per day

Orbit

SSO

Sun Synchronous Orbit

Inclination

98.8

Latest

Satellite identification and parameters

Extended collection of information and parameters for CZ-6A DEB.

Object identification

Identified? True

Debris? True

Object name: CZ-6A DEB

International designator: 2022-151LE

Object number (NORAD): 54554

Object ID (CCSDS): 54554

Country: PEOPLES REPUBLIC OF CHINA (PRC)

Current information (Y/N): Y

RCS size: SMALL

Orbital parameters

Period: 102.111 minutes

Inclination: 98.8418 deg

SMA: 7236.72 km

Apoapsis: 895.115 km

Periapsis: 822.056 km

RAAN: 132.8639 deg

Eccentricy: 0.0050478

Argument of periapsis: 4.0186 deg

Mean anomaly: 356.138 deg

Mean motion: 14.10230443 rev/day

Mean motion (dot): 0.00000426 rev/day2

B* drag term: 0.00026201 1/REarth

Two-line elements (TLE)

Creation date: May 9, 2025, 2:46 a.m.

Reference frame: TEME

Reference center: EARTH

Epoch: May 8, 2025, 12:37 p.m. UTC

TLE line 0: 0 CZ-6A DEB

TLE line 1: 1 54554U 22151LE 25128.52597167 .00000426 00000-0 26201-3 0 9990

TLE line 2: 2 54554 98.8418 132.8639 0050478 4.0186 356.1380 14.10230443127736

Live tracking on map

Real-time ground track for satellite CZ-6A DEB.

In-orbit conjunctions

A list of the most updated potential collisions computed for object CZ-6A DEB.

Target Orbit TCA Probability of collision Miss distance Type
THOR ABLESTAR DEB LEO 2024-11-12 02:25:48 0.0001414359 475.0 (m) DEBRIS
METEOR 1-20 LEO 2024-08-16 13:09:36 0.000174606 94.0 (m) PAYLOAD

Associated space launch

Chinese satellite reported for atmospheric/ocean/environmental/spatial parameter research purposes, details TBD.

CZ-6A DEB was lifted into orbit during the mission ‘Long March 6A | Yunhai 3’, on board a Long March 6A space rocket.

The launch took place on Nov. 11, 2022, 10:52 p.m. from Launch Complex 9A.

For more information about the launch, click the button.

Launch to space Long March 6A | Yunhai 3
Long March 6A | Yunhai 3

Agency: N/A

Status: Launch Successful

Launch date: Nov. 11, 2022, 10:52 p.m. UTC

Rocket: Long March 6A

Launch pad: Launch Complex 9A

Location: Taiyuan Satellite Launch Center, People's Republic of China

...

Latest news about this satellite

There are no fresh news available about this satellite. Check back as we update our databases every day.


Newsletter sign-up

Weekly statistics, charts and insights to help you stay on top of the space industry.